BV1EV-2 Weather Reports


Display with metric or nautical units.
time (UTC)temp
F
wind
direction
speed
MPH
gust
MPH
rain 1hr
in
rain 24hr
in
rain mn
in
humidity
%
barometer
mb
20260505013747 79 0.0 0.0 0.00 0.00 0.00 33 1014.4
20260505011748 80 0.0 0.0 0.00 0.00 0.00 34 1014.3
20260505005747 81 0.0 0.0 0.00 0.00 0.00 36 1014.0
20260505003747 79 0.0 0.0 0.00 0.00 0.00 50 1014.1
20260505001746 78 0.0 0.0 0.00 0.00 0.00 49 1014.1
20260504235747 78 0.0 0.0 0.00 0.00 0.00 48 1013.7
20260504233748 77 0.0 0.0 0.00 0.00 0.00 48 1013.6
20260504231748 77 0.0 0.0 0.00 0.00 0.00 46 1013.8
20260504225747 76 0.0 0.0 0.00 0.00 0.00 46 1013.6
20260504223748 76 0.0 0.0 0.00 0.00 0.00 44 1013.4
20260504221748 75 0.0 0.0 0.00 0.00 0.00 42 1013.2
20260504215747 77 0.0 0.0 0.00 0.00 0.00 35 1013.0
20260504213747 77 0.0 0.0 0.00 0.00 0.00 33 1012.9
20260504211748 77 0.0 0.0 0.00 0.00 0.00 33 1012.6
20260504205748 77 0.0 0.0 0.00 0.00 0.00 33 1012.4
20260504203748 78 0.0 0.0 0.00 0.00 0.00 34 1012.4
20260504201747 78 0.0 0.0 0.00 0.00 0.00 33 1012.5
20260504195747 78 0.0 0.0 0.00 0.00 0.00 34 1012.4
20260504193747 79 0.0 0.0 0.00 0.00 0.00 34 1012.4
20260504191747 79 0.0 0.0 0.00 0.00 0.00 36 1012.5
20260504185748 80 0.0 0.0 0.00 0.00 0.00 37 1012.5
20260504183748 81 0.0 0.0 0.00 0.00 0.00 35 1012.7
20260504181747 81 0.0 0.0 0.00 0.00 0.00 37 1012.9
20260504175747 82 0.0 0.0 0.00 0.00 0.00 42 1013.2
20260504173747 82 0.0 0.0 0.00 0.00 0.00 44 1013.6
20260504171747 78 0.0 0.0 0.00 0.00 0.00 47 1014.0
20260504081748 87 0.0 0.0 0.00 0.00 0.00 44 1015.3
20260504045747 82 0.0 0.0 0.00 0.00 0.00 51 1015.9
20260504043747 83 0.0 0.0 0.00 0.00 0.00 50 1016.0
20260504041747 82 0.0 0.0 0.00 0.00 0.00 49 1016.3
20260504035747 81 0.0 0.0 0.00 0.00 0.00 50 1016.3
20260504033747 81 0.0 0.0 0.00 0.00 0.00 51 1016.5
20260504031747 81 0.0 0.0 0.00 0.00 0.00 52 1016.9
20260504025747 80 0.0 0.0 0.00 0.00 0.00 53 1016.9
20260504023747 82 0.0 0.0 0.00 0.00 0.00 42 1017.0
20260504021747 83 0.0 0.0 0.00 0.00 0.00 38 1017.4
20260504015747 83 0.0 0.0 0.00 0.00 0.00 38 1017.7